DW4236 Weather Reports


time (UTC)temp
C
wind
direction
speed
KPH
gust
KPH
rain 1hr
cm
rain 24hr
cm
rain mn
cm
humidity
%
barometer
mb
20260905200104 25 100 4.8 11.3 0.00 0.00 0.00 60 1011.3
20260905195604 26 37 6.4 14.5 0.00 0.00 0.00 60 1011.3
20260905195104 25 80 6.4 16.1 0.00 0.00 0.00 61 1011.3
20260905194604 25 44 8.0 14.5 0.00 0.00 0.00 61 1011.3
20260905193604 25 351 6.4 16.1 0.00 0.00 0.00 60 1011.2
20260905193103 25 47 4.8 14.5 0.00 0.00 0.00 59 1011.2
20260905192104 25 95 4.8 14.5 0.00 0.00 0.00 60 1011.2
20260905191603 25 6 3.2 12.9 0.00 0.00 0.00 63 1011.3
20260905191104 25 26 4.8 14.5 0.00 0.00 0.00 63 1011.4
20260905190604 25 6 4.8 9.7 0.00 0.00 0.00 62 1011.4
20260905190103 25 82 3.2 11.3 0.00 0.00 0.00 61 1011.3
20260905185604 26 22 4.8 12.9 0.00 0.00 0.00 60 1011.4
20260905184604 26 27 1.6 4.8 0.00 0.00 0.00 59 1011.4
20260905184103 26 65 4.8 16.1 0.00 0.00 0.00 58 1011.4
20260905183604 26 90 4.8 12.9 0.00 0.00 0.00 58 1011.5
20260905183103 26 42 4.8 12.9 0.00 0.00 0.00 59 1011.5
20260905182604 26 353 4.8 12.9 0.00 0.00 0.00 61 1011.5
20260905182103 25 350 1.6 14.5 0.00 0.00 0.00 64 1011.5
20260905181104 25 27 3.2 16.1 0.00 0.00 0.00 62 1011.7
20260905180604 25 19 9.7 19.3 0.00 0.00 0.00 61 1011.7
20260905175104 25 50 6.4 14.5 0.00 0.00 0.00 63 1011.9
20260905174604 25 65 8.0 19.3 0.00 0.00 0.00 66 1011.9
20260905173603 25 95 9.7 16.1 0.00 0.00 0.00 66 1012.0
20260905173103 24 86 1.6 19.3 0.00 0.00 0.00 67 1012.0
20260905172603 24 84 6.4 19.3 0.00 0.00 0.00 66 1012.0
20260905172104 24 63 3.2 14.5 0.00 0.00 0.00 68 1012.1
20260905171604 23 0 3.2 11.3 0.00 0.00 0.00 69 1012.1
20260905171103 23 57 3.2 14.5 0.00 0.00 0.00 68 1012.1
20260905170603 23 89 4.8 16.1 0.00 0.00 0.00 67 1012.2
20260905170104 24 58 8.0 20.9 0.00 0.00 0.00 66 1012.2
20260905165603 24 97 8.0 14.5 0.00 0.00 0.00 67 1012.1
20260905165104 24 18 6.4 12.9 0.00 0.00 0.00 67 1012.2
20260905164604 23 44 4.8 12.9 0.00 0.00 0.00 69 1012.2
20260905164105 23 84 3.2 8.0 0.00 0.00 0.00 70 1012.2
20260905163606 23 103 1.6 8.0 0.00 0.00 0.00 70 1012.2
20260905163105 23 20 8.0 14.5 0.00 0.00 0.00 69 1012.2
20260905162605 23 4 0.0 3.2 0.00 0.00 0.00 69 1012.1
20260905162106 24 358 3.2 12.9 0.00 0.00 0.00 68 1012.1
20260905161605 24 109 0.0 4.8 0.00 0.00 0.00 70 1012.1
20260905161105 23 118 3.2 8.0 0.00 0.00 0.00 71 1012.2
20260905160605 23 27 4.8 8.0 0.00 0.00 0.00 70 1012.2
20260905160105 23 122 4.8 11.3 0.00 0.00 0.00 72 1012.1
20260905155605 23 9 3.2 8.0 0.00 0.00 0.00 71 1012.2
20260905155104 23 55 3.2 9.7 0.00 0.00 0.00 70 1012.2
20260905154605 23 97 3.2 8.0 0.00 0.00 0.00 72 1012.2
20260905154105 23 107 3.2 11.3 0.00 0.00 0.00 72 1012.2
20260905153605 23 99 3.2 19.3 0.00 0.00 0.00 72 1012.2
20260905153105 24 2 4.8 12.9 0.00 0.00 0.00 71 1012.2
20260905152606 23 77 4.8 19.3 0.00 0.00 0.00 73 1012.2
20260905151605 23 124 6.4 14.5 0.00 0.00 0.00 75 1012.3
20260905150606 23 83 4.8 9.7 0.00 0.00 0.00 75 1012.4
20260905150105 23 139 3.2 9.7 0.00 0.00 0.00 75 1012.4
20260905145106 23 112 4.8 4.8 0.00 0.00 0.00 73 1012.5
20260905144605 23 112 1.6 4.8 0.00 0.00 0.00 73 1012.3
20260905144105 23 112 4.8 11.3 0.00 0.00 0.00 75 1012.2
20260905143606 23 126 3.2 4.8 0.00 0.00 0.00 74 1012.3
20260905143104 23 125 1.6 4.8 0.00 0.00 0.00 76 1012.4
20260905142605 23 126 3.2 4.8 0.00 0.00 0.00 76 1012.4
20260905142105 22 125 1.6 4.8 0.00 0.00 0.00 76 1012.4
20260905141605 22 125 1.6 4.8 0.00 0.00 0.00 77 1012.3
20260905141105 22 125 3.2 8.0 0.00 0.00 0.00 76 1012.4
20260905140606 22 125 1.6 8.0 0.00 0.00 0.00 78 1012.3
20260905135605 22 126 4.8 8.0 0.00 0.00 0.00 77 1012.4
20260905135105 22 128 1.6 8.0 0.00 0.00 0.00 78 1012.4
20260905134605 22 157 0.0 3.2 0.00 0.00 0.00 81 1012.5
20260905133604 21 183 1.6 8.0 0.00 0.00 0.00 83 1012.5
20260905132605 21 167 4.8 4.8 0.00 0.00 0.00 86 1012.6
20260905132105 20 224 1.6 4.8 0.00 0.00 0.00 86 1012.5
20260905131605 19 242 0.0 0.0 0.00 0.00 0.00 87 1012.6
20260905130605 19 242 0.0 0.0 0.00 0.00 0.00 86 1012.7
20260905130105 19 242 0.0 4.8 0.00 0.00 0.00 86 1012.7
20260905125605 19 242 0.0 3.2 0.00 0.00 0.00 87 1012.9
20260905125105 19 242 0.0 3.2 0.00 0.00 0.00 87 1012.9
20260905124605 18 242 1.6 3.2 0.00 0.00 0.00 87 1012.9
20260905124105 18 242 0.0 8.0 0.00 0.00 0.00 87 1012.8
20260905123105 18 282 3.2 8.0 0.00 0.00 0.00 88 1012.8
20260905122605 18 268 4.8 12.9 0.00 0.00 0.00 89 1012.9
20260905122106 18 281 6.4 12.9 0.00 0.00 0.00 90 1012.9
20260905121605 18 266 8.0 12.9 0.00 0.00 0.00 91 1012.9
20260905121105 18 279 3.2 4.8 0.00 0.00 0.00 92 1012.9
20260905120605 17 273 3.2 9.7 0.00 0.00 0.00 93 1012.8
20260905120105 17 307 1.6 11.3 0.00 0.00 0.00 94 1012.7
20260905115605 17 276 1.6 9.7 0.00 0.00 0.00 95 1012.6
20260905115105 17 264 3.2 11.3 0.00 0.00 0.00 95 1012.6
20260905114605 17 286 4.8 11.3 0.00 0.00 0.00 95 1012.6
20260905114105 16 286 3.2 4.8 0.00 0.00 0.00 95 1012.5
20260905113605 16 280 3.2 8.0 0.00 0.00 0.00 95 1012.4
20260905112606 16 336 0.0 0.0 0.00 0.00 0.00 96 1012.4
20260905112104 16 336 0.0 0.0 0.00 0.00 0.00 95 1012.4
20260905111605 15 336 0.0 0.0 0.00 0.00 0.00 95 1012.2
20260905111106 15 336 0.0 0.0 0.00 0.00 0.00 95 1012.2
20260905110605 15 336 0.0 0.0 0.00 0.00 0.00 95 1012.2
20260905110105 15 336 0.0 0.0 0.00 0.00 0.00 95 1012.1
20260905105105 15 336 0.0 0.0 0.00 0.03 0.00 95 1011.9
20260905104604 15 336 0.0 0.0 0.00 0.03 0.00 95 1011.9
20260905104105 15 336 0.0 0.0 0.00 0.03 0.00 95 1011.8
20260905103605 15 336 0.0 0.0 0.00 0.03 0.00 95 1011.7
20260905103105 15 336 0.0 0.0 0.00 0.03 0.00 95 1011.7
20260905102606 15 336 0.0 0.0 0.00 0.03 0.00 95 1011.5
20260905102105 15 336 0.0 0.0 0.00 0.03 0.00 95 1011.5
20260905101606 15 336 0.0 0.0 0.00 0.03 0.00 95 1011.5
20260905101104 15 336 0.0 0.0 0.00 0.03 0.00 94 1011.4
20260905100605 15 336 0.0 0.0 0.00 0.03 0.00 94 1011.4
20260905100105 15 336 0.0 0.0 0.00 0.03 0.00 94 1011.5
20260905095106 15 336 0.0 0.0 0.00 0.03 0.00 94 1011.4
20260905094604 15 336 0.0 0.0 0.00 0.03 0.00 94 1011.5
20260905094104 15 336 0.0 0.0 0.00 0.03 0.00 94 1011.4
20260905093605 15 336 0.0 0.0 0.00 0.03 0.00 94 1011.5
20260905093104 15 336 0.0 0.0 0.00 0.03 0.00 94 1011.4
20260905092604 15 336 0.0 0.0 0.00 0.03 0.00 94 1011.4
20260905092104 16 336 0.0 0.0 0.00 0.03 0.00 94 1011.4
20260905091106 16 336 0.0 0.0 0.00 0.03 0.00 94 1011.4
20260905090605 16 336 0.0 0.0 0.00 0.03 0.00 94 1011.3
20260905085605 16 336 0.0 0.0 0.00 0.03 0.00 94 1011.3
20260905085105 16 336 0.0 0.0 0.00 0.03 0.00 94 1011.3
20260905084605 16 336 0.0 0.0 0.00 0.03 0.00 94 1011.3
20260905084105 16 336 0.0 0.0 0.00 0.03 0.00 94 1011.2
20260905083605 16 336 0.0 0.0 0.00 0.03 0.00 94 1011.2
20260905083105 16 336 0.0 0.0 0.00 0.03 0.00 94 1011.3
20260905082606 16 336 0.0 0.0 0.00 0.03 0.00 94 1011.2
20260905082106 16 336 0.0 0.0 0.00 0.03 0.00 93 1011.2
20260905081104 16 336 0.0 0.0 0.00 0.03 0.00 93 1011.2
20260905080605 16 336 0.0 0.0 0.00 0.03 0.00 94 1011.3
20260905080105 16 336 0.0 0.0 0.00 0.03 0.00 93 1011.3
20260905075604 16 336 0.0 0.0 0.00 0.03 0.00 93 1011.3
20260905074605 16 336 0.0 0.0 0.00 0.03 0.00 93 1011.3
20260905074106 16 336 0.0 0.0 0.00 0.03 0.00 93 1011.3
20260905073605 16 336 0.0 0.0 0.00 0.03 0.00 93 1011.4
20260905072605 16 336 0.0 0.0 0.00 0.03 0.00 93 1011.4
20260905072105 16 335 0.0 0.0 0.00 0.05 0.00 93 1011.4
20260905071606 17 335 0.0 0.0 0.00 0.08 0.00 93 1011.4
20260905071105 17 335 0.0 0.0 0.00 0.13 0.00 92 1011.4
20260905070604 17 335 0.0 0.0 0.00 0.15 0.00 92 1011.3
20260905065605 17 334 0.0 0.0 0.00 0.18 0.00 92 1011.5
20260905065105 17 334 0.0 0.0 0.00 0.20 0.00 92 1011.5
20260905064605 17 332 0.0 0.0 0.00 0.30 0.00 92 1011.4
20260905064105 17 332 0.0 0.0 0.00 0.48 0.00 92 1011.5
20260905063605 17 333 0.0 0.0 0.00 0.53 0.00 92 1011.6
20260905063104 17 333 0.0 3.2 0.00 0.53 0.00 92 1011.6
20260905062605 17 334 0.0 0.0 0.00 0.53 0.00 92 1011.6
20260905062105 17 334 0.0 0.0 0.00 0.56 0.00 91 1011.6
20260905060604 18 334 0.0 0.0 0.00 0.64 0.00 91 1011.7
20260905060104 18 334 0.0 0.0 0.00 0.64 0.00 91 1011.7
20260905055105 18 335 0.0 0.0 0.00 0.64 0.00 91 1011.7
20260905054605 18 335 0.0 0.0 0.00 0.64 0.00 91 1011.9
20260905053605 18 335 0.0 0.0 0.00 0.64 0.00 91 1012.0
20260905053105 18 335 0.0 0.0 0.00 0.64 0.00 91 1012.1
20260905052604 18 335 0.0 0.0 0.00 0.64 0.00 91 1012.1
20260905052105 18 335 0.0 0.0 0.00 0.64 0.00 91 1012.2
20260905051105 18 334 0.0 0.0 0.00 0.64 0.00 90 1012.3
20260905050604 18 334 0.0 0.0 0.00 0.64 0.00 90 1012.3
20260905050104 18 334 0.0 0.0 0.00 0.64 0.00 90 1012.3
20260905045606 18 334 0.0 0.0 0.00 0.64 0.00 90 1012.3
20260905045105 18 334 0.0 0.0 0.00 0.64 0.00 90 1012.3
20260905044605 18 334 0.0 0.0 0.00 0.64 0.00 90 1012.2
20260905043104 18 334 0.0 0.0 0.00 0.64 0.00 89 1012.1
20260905042605 19 333 0.0 0.0 0.00 0.64 0.00 89 1012.3
20260905042104 19 334 0.0 0.0 0.00 0.64 0.00 89 1012.2
20260905041104 19 334 0.0 0.0 0.00 0.64 0.00 89 1012.2
20260905040605 19 334 0.0 0.0 0.00 0.64 0.00 89 1012.3
20260905035605 19 334 0.0 0.0 0.00 0.64 0.64 89 1012.3
20260905035104 19 334 0.0 0.0 0.00 0.64 0.64 89 1012.3
20260905034605 19 334 0.0 0.0 0.00 0.64 0.64 88 1012.4
20260905033105 20 334 0.0 0.0 0.00 0.64 0.64 89 1012.3
20260905032606 20 334 0.0 0.0 0.00 0.64 0.64 89 1012.2
20260905032105 20 334 0.0 0.0 0.00 0.64 0.64 88 1012.2
20260905031105 20 334 0.0 0.0 0.00 0.64 0.64 88 1012.2
20260905030605 20 334 0.0 0.0 0.00 0.64 0.64 88 1012.2
20260905030104 20 334 0.0 0.0 0.00 0.64 0.64 88 1012.1
20260905025605 20 334 0.0 0.0 0.00 0.64 0.64 87 1012.1
20260905025104 20 334 0.0 0.0 0.00 0.64 0.64 87 1012.1
20260905024605 20 334 0.0 0.0 0.00 0.64 0.64 86 1012.1
20260905024105 20 334 0.0 0.0 0.00 0.64 0.64 86 1012.1
20260905023605 20 335 0.0 0.0 0.00 0.64 0.64 85 1012.1
20260905023106 20 336 0.0 0.0 0.00 0.64 0.64 85 1012.2
20260905022604 20 336 1.6 3.2 0.00 0.64 0.64 85 1012.1
20260905022104 20 336 3.2 4.8 0.00 0.64 0.64 85 1012.3
20260905021605 20 336 0.0 0.0 0.00 0.64 0.64 84 1012.3
20260905020605 21 336 0.0 0.0 0.00 0.64 0.64 83 1012.2
20260905020107 21 336 0.0 0.0 0.00 0.64 0.64 83 1012.2
20260905015605 21 336 1.6 3.2 0.00 0.64 0.64 82 1012.2
20260905015105 21 336 0.0 1.6 0.00 0.64 0.64 82 1012.2
20260905014605 21 336 0.0 1.6 0.00 0.64 0.64 81 1012.1
20260905014105 22 334 1.6 3.2 0.00 0.64 0.64 80 1012.1
20260905013605 22 340 0.0 1.6 0.00 0.64 0.64 80 1012.1
20260905013104 22 340 0.0 3.2 0.00 0.64 0.64 79 1012.0
20260905012604 22 340 1.6 3.2 0.00 0.64 0.64 79 1012.0
20260905011604 22 327 0.0 4.8 0.00 0.64 0.64 78 1012.1
20260905010605 22 342 0.0 3.2 0.00 0.64 0.64 78 1012.0
20260905010105 22 342 0.0 3.2 0.00 0.64 0.64 77 1012.1
20260905005605 22 340 0.0 0.0 0.00 0.64 0.64 77 1012.1
20260905004606 22 338 1.6 4.8 0.00 0.64 0.64 76 1012.1
20260905004104 22 338 1.6 4.8 0.00 0.64 0.64 76 1012.1
20260905003606 23 342 0.0 0.0 0.00 0.64 0.64 75 1012.0
20260905002104 23 342 0.0 3.2 0.00 0.64 0.64 74 1012.0
20260905001604 23 318 0.0 0.0 0.00 0.64 0.64 74 1012.0
20260905001104 23 318 0.0 3.2 0.00 0.64 0.64 73 1011.9
20260905000605 23 338 0.0 4.8 0.00 0.64 0.64 73 1011.7
20260905000104 23 338 0.0 8.0 0.00 0.64 0.64 74 1011.7
20260904235606 23 344 1.6 4.8 0.00 0.64 0.64 73 1011.6
20260904234604 24 291 0.0 3.2 0.00 0.64 0.64 73 1011.6
20260904233104 25 341 1.6 4.8 0.00 0.64 0.64 72 1011.6
20260904232605 25 338 0.0 1.6 0.00 0.64 0.64 72 1011.6
20260904232105 25 338 1.6 4.8 0.00 0.64 0.64 72 1011.5
20260904231605 25 313 0.0 4.8 0.00 0.64 0.64 72 1011.5
20260904231105 25 307 0.0 1.6 0.00 0.64 0.64 72 1011.5
20260904230604 25 307 1.6 4.8 0.00 0.64 0.64 72 1011.5
20260904230105 25 320 0.0 3.2 0.00 0.64 0.64 72 1011.6
20260904225605 25 315 0.0 1.6 0.00 0.64 0.64 71 1011.6
20260904225105 25 315 0.0 4.8 0.00 0.64 0.64 71 1011.6
20260904224604 25 310 1.6 3.2 0.00 0.64 0.64 71 1011.5
20260904224105 25 309 0.0 1.6 0.00 0.64 0.64 71 1011.5
20260904223605 25 309 0.0 1.6 0.00 0.64 0.64 70 1011.5
20260904223105 25 310 0.0 1.6 0.00 0.64 0.64 70 1011.5
20260904222604 26 305 0.0 3.2 0.00 0.64 0.64 70 1011.6
20260904222104 26 303 0.0 3.2 0.00 0.64 0.64 70 1011.5
20260904221605 26 301 1.6 4.8 0.00 0.64 0.64 69 1011.5
20260904215604 26 276 1.6 8.0 0.00 0.64 0.64 66 1011.4
20260904214604 26 293 1.6 4.8 0.00 0.64 0.64 65 1011.3
20260904214105 26 286 3.2 4.8 0.00 0.64 0.64 63 1011.3
20260904213605 27 284 1.6 4.8 0.00 0.64 0.64 63 1011.3
20260904213105 27 284 0.0 4.8 0.00 0.64 0.64 61 1011.3
20260904212604 27 283 3.2 4.8 0.00 0.64 0.64 60 1011.2
20260904211604 27 302 1.6 4.8 0.00 0.64 0.64 59 1011.2
20260904211106 27 288 3.2 4.8 0.00 0.64 0.64 58 1011.2
20260904210605 27 263 3.2 4.8 0.00 0.64 0.64 58 1011.4
20260904210105 28 294 3.2 11.3 0.00 0.64 0.64 55 1011.4
20260904205605 28 307 4.8 12.9 0.00 0.64 0.64 55 1011.3
20260904205105 28 280 8.0 14.5 0.00 0.64 0.64 55 1011.4
20260904204604 28 317 4.8 8.0 0.00 0.64 0.64 54 1011.3
20260904203605 28 296 4.8 14.5 0.00 0.64 0.64 56 1011.4
20260904203105 29 288 4.8 16.1 0.00 0.64 0.64 52 1011.5
20260904202606 29 319 3.2 12.9 0.00 0.64 0.64 53 1011.6
20260904202105 29 276 4.8 16.1 0.00 0.64 0.64 53 1011.6
20260904201605 29 287 4.8 19.3 0.00 0.64 0.64 52 1011.5
20260904201104 29 295 8.0 19.3 0.00 0.64 0.64 54 1011.5
20260904200605 30 326 3.2 14.5 0.00 0.64 0.64 54 1011.5